User: anonymous   Login
Location: Ar Ranvel
(48.3000°N, 4.8833°W)
Time: 22:48:36
(UTC+00:00)
Language:

Cosmos 1844 - Orbit

View from above orbital plane
View from above orbital plane
View from above satellite
View from above satellite

Ground track
Ground track

The orbit data is extracted from the following two-line orbital elements,

1 17973U 87041A   21263.29073514 -.00000100  00000-0 -26886-4 0  9999
2 17973  70.8986 233.8313 0033347 308.3352  51.4773 14.14134269772923
Epoch (UTC): 20 September 2021 06:58:39
Eccentricity: 0.0033347
inclination: 70.8986°
perigee height: 821 km
apogee height: 869 km
right ascension of ascending node: 233.8313°
argument of perigee: 308.3352°
revolutions per day: 14.14134269
mean anomaly at epoch: 51.4773°
orbit number at epoch: 77292

The dashed part of the orbit path shows where the satellite is in the earth's shadow,  

DLR